Weather History for KPBI - November, 2013

Change the Weather History Date:

Saturday, November 16, 2013

  Actual Average Record
Temperature  
Mean Temperature 78 °F 73 °F  
Max Temperature 83 °F 80 °F 88 °F (1980)
Min Temperature 73 °F 65 °F 40 °F (1940)
Degree Days  
Heating Degree Days 0 0  
Month to date heating degree days 0 0  
Since 1 July heating degree days 0 1  
Cooling Degree Days 13 8  
Month to date cooling degree days 217 145  
Year to date cooling degree days 4064 3766  
Growing Degree Days 28 (Base 50)    
Moisture  
Dew Point 68 °F    
Average Humidity 69    
Maximum Humidity 79    
Minimum Humidity 58    
Precipitation  
Precipitation 0.20 in 0.17 in 3.89 in (1994)
Month to date precipitation 0.88 2.84  
Year to date precipitation 58.74 57.04  
Snow  
Snow 0.00 in - - ()
Month to date snowfall 0.0  
Since 1 July snowfall 0.0  
Since 1 September snowfall 0.0  
Snow Depth 0.00 in    
Sea Level Pressure  
Sea Level Pressure 30.06 in    
Wind  
Wind Speed 12 mph (East)    
Max Wind Speed 20 mph    
Max Gust Speed 23 mph    
Visibility 9 miles    
Events Rain    
T = Trace of Precipitation, MM = Missing Value Source: NWS Daily Summary

Daily Weather History Graph

Daily Weather History Graph

Search for Another Location

Airport or City:

Trip Planner

Search our weather history database for the weather conditions in past years. The results will help you decide how hot, cold, wet, or windy it might be!

Date:

Astronomy

Nov. 16, 2013 Rise Set
Actual Time 6:40 AM EST 5:29 PM EST
Civil Twilight 6:16 AM EST 5:54 PM EST
Nautical Twilight 5:48 AM EST 6:22 PM EST
Astronomical Twilight 5:20 AM EST 6:49 PM EST
Moon 5:00 PM EST (11/16) 5:40 AM EST (11/16)
Length of Visible Light 11h 37m
Length of Day
10h 48m
Waxing Gibbous, 99% of the Moon is Illuminated
Nov 16
Waxing Gibbous
Nov 17
Full
Nov 25
Last Quarter
Dec 2
New
Dec 9
First Quarter

Hourly Weather History & Observations

Time (EST) Temp. Heat Index Dew Point Humidity Pressure Visibility Wind Dir Wind Speed Gust Speed Precip Events Conditions
12:53 AM 78.1 °F - 66.0 °F 66% 30.06 in 10.0 mi East 16.1 mph - N/A   Mostly Cloudy
1:53 AM 78.1 °F - 66.0 °F 66% 30.05 in 10.0 mi East 13.8 mph - N/A   Mostly Cloudy
2:53 AM 79.0 °F - 66.0 °F 64% 30.04 in 10.0 mi ESE 17.3 mph - N/A   Mostly Cloudy
3:53 AM 79.0 °F - 64.9 °F 62% 30.04 in 10.0 mi ESE 17.3 mph - N/A   Mostly Cloudy
4:53 AM 79.0 °F - 66.0 °F 64% 30.03 in 10.0 mi ESE 16.1 mph - N/A   Scattered Clouds
5:53 AM 79.0 °F - 66.9 °F 66% 30.04 in 10.0 mi ESE 16.1 mph 23.0 mph N/A   Mostly Cloudy
6:53 AM 79.0 °F - 66.9 °F 66% 30.05 in 10.0 mi SE 18.4 mph - 0.00 in   Overcast
7:28 AM 78.8 °F - 68.0 °F 69% 30.07 in 10.0 mi SE 12.7 mph - N/A   Overcast
7:53 AM 79.0 °F - 66.9 °F 66% 30.07 in 10.0 mi SE 15.0 mph - N/A   Overcast
8:13 AM 80.6 °F 83.2 °F 68.0 °F 65% 30.08 in 10.0 mi SE 11.5 mph - N/A   Overcast
8:53 AM 80.1 °F 82.7 °F 68.0 °F 67% 30.09 in 10.0 mi SE 11.5 mph - N/A   Overcast
9:53 AM 81.0 °F 83.8 °F 68.0 °F 65% 30.10 in 10.0 mi ESE 17.3 mph - N/A   Overcast
10:53 AM 82.0 °F 84.5 °F 66.9 °F 60% 30.09 in 10.0 mi SE 15.0 mph - N/A   Overcast
11:53 AM 82.0 °F 84.5 °F 66.9 °F 60% 30.08 in 10.0 mi SE 13.8 mph - N/A   Mostly Cloudy
12:48 PM 78.8 °F - 69.8 °F 74% 30.06 in 2.5 mi SE 3.5 mph - 0.04 in Rain Rain
12:53 PM 78.1 °F - 70.0 °F 76% 30.06 in 2.5 mi Calm Calm - 0.05 in Rain Rain
1:53 PM 75.0 °F - 66.0 °F 73% 30.05 in 2.5 mi NE 8.1 mph - 0.13 in Rain Rain
1:56 PM 73.4 °F - 64.4 °F 73% 30.05 in 7.0 mi NE 6.9 mph - 0.00 in Rain Light Rain
2:53 PM 73.9 °F - 66.0 °F 76% 30.04 in 7.0 mi WNW 3.5 mph - 0.00 in Rain Light Rain
3:53 PM 75.0 °F - 69.1 °F 82% 30.03 in 10.0 mi NNE 4.6 mph - 0.02 in   Overcast
4:53 PM 78.1 °F - 69.1 °F 74% 30.04 in 10.0 mi ENE 6.9 mph - N/A   Overcast
5:53 PM 78.1 °F - 68.0 °F 71% 30.05 in 10.0 mi ENE 10.4 mph - N/A   Overcast
6:53 PM 78.1 °F - 68.0 °F 71% 30.06 in 10.0 mi ENE 9.2 mph - N/A   Overcast
7:53 PM 78.1 °F - 68.0 °F 71% 30.08 in 10.0 mi ENE 9.2 mph - N/A   Mostly Cloudy
8:53 PM 78.1 °F - 68.0 °F 71% 30.08 in 10.0 mi East 9.2 mph - N/A   Mostly Cloudy
9:53 PM 78.1 °F - 69.1 °F 74% 30.09 in 10.0 mi East 8.1 mph - N/A   Scattered Clouds
10:53 PM 78.1 °F - 69.1 °F 74% 30.08 in 10.0 mi East 10.4 mph - N/A   Mostly Cloudy
11:53 PM 78.1 °F - 70.0 °F 76% 30.06 in 10.0 mi East 15.0 mph - N/A   Mostly Cloudy